sat.trackr.live / text

‹ back to catalog

TRANSPORTER-15 OBJECT R

NORAD 66681 · 2025-276R

PAYLOAD ACTIVE UNKNOWN

§ Identity

Operator
Country
TBD
Launch date
2025-11-28
Launch site
AFWTR
Launch vehicle
Mass (kg)
RCS (m²)

External: N2YO · Heavens-Above · Gunter

§ Orbital elements

Epoch: 2026-09-19T14:44:16.821312Z

Period
94.32 min
Inclination
97.4036°
Eccentricity
0.0005559
Mean motion
15.26636818 rev/d
Perigee alt
482.1 km
Apogee alt
489.7 km
Semi-major
6,864.0 km
B*
4.6988e-4
RAAN
335.6001°
Arg perigee
55.8494°
Mean anomaly
304.3271°
Rev number
4,485

§ Raw data

TRANSPORTER-15 OBJECT R1 66681U 25276R   26262.61408358  .00012256  00000+0  46988-3 0  99952 66681  97.4036 335.6001 0005559  55.8494 304.3271 15.26636818 44852

JSON: /api/v1/satellites/66681 · /tle

For live sub-satellite position, see the globe view (requires WebGL).

§ Visibility from observer

Set your observer location to see the next 7 days of passes ≥ 10°. The values pass through the URL so the page stays shareable.

No JS? Fill the form by hand. The geolocation button needs JavaScript.

§ Radio — SatNOGS DB

ModeDescriptionDownlinkUplink
FSK Mode S - FSK400k - Transmitter 2.208 GHz 2.108 GHz
FSK Mode U - FSK50k - Telemetry 400.550 MHz 401.250 MHz

2 transmitters · refreshed weekly from db.satnogs.org